Novato, CA (94949)

7:37 AM PST on December 28, 2014 (GMT -0800)
Ignacio, Loma Verde | Change Station
CLOSE
Current Station
Personal Weather Station
Location: Novato, CA
Elevation: 100 ft
Nearby Weather Stations

Elev 100 ft 38.06 °N, 122.55 °W | Updated 16 minutes ago

Clear
Clear
40.6 °F
Feels Like 41 °F
N
0.0
Wind Variable Wind from North
Gusts 0.0 mph

Today
High -- | Low -- °F
--% Chance of Precip.
Yesterday
High -- | Low -- °F
Precip. -- in
7:25 AM 4:58 PM
Waxing Crescent, 49% visible
Pressure 30.31 in
Visibility 10.0 miles
Clouds Few 12000 ft
Windchill 41 °F
Dew Point 35 °F
Humidity 80%
Rainfall 0.00 in
Snow Depth Not available.
UV 0 out of 12
Pollen 5.70 out of 12
Air Quality Not available.
Flu Activity Not available.
METAR KAPC 281454Z AUTO 00000KT 10SM FEW120 03/02 A3034 RMK AO2 SLP264 T00280017 55003 $

More Conditions Fewer Conditions

Pressure 30.31 in
Visibility 10.0 miles
Clouds Few 12000 ft
Windchill 41 °F
Dew Point 35 °F
Humidity 80%
Rainfall 0.00 in
Snow Depth Not available.
UV 0 out of 12
Pollen 5.70 out of 12
Air Quality Not available.
Flu Activity Not available.
METAR KAPC 281454Z AUTO 00000KT 10SM FEW120 03/02 A3034 RMK AO2 SLP264 T00280017 55003 $

More Conditions Fewer Conditions

10-Day Weather Forecast

Almanac

Astronomy

Dec. 28, 2014 Rise Set
Actual Time
Civil Twilight
Nautical Twilight
Astronomical Twilight
Moon
Length of Visible Light
Length of Day
Tomorrow will be .
, % of the Moon is Illuminated

Today's Extremes

State Highs State Lows

Community

WunderPhotos

Upload Photos

1,781,307 photos uploaded!

WunderBlogs® & News

Nearby

Air Quality

  Air Quality AQ Index Pollutant
Not available.

Snow Depth

Station Depth Elevation

Earthquake Activity

City Distance Mag. Time & Date
Minimum magnitude displayed is 2.5.

Coastal Water Temperatures

Place Temperature

Nearby Weather Stations